GW4214 Weather Reports


Display with metric or nautical units.
time (UTC)temp
F
wind
direction
speed
MPH
gust
MPH
rain 1hr
in
rain 24hr
in
rain mn
in
humidity
%
barometer
mb
20260904031005 55 162 2.0 2.0 0.07 0.62 0.62 98 1012.1
20260904030500 55 192 1.0 1.0 0.00 0.61 0.61 98 1011.8
20260904025955 55 136 1.0 2.0 0.00 0.61 0.61 98 1012.1
20260904025451 56 188 4.0 5.0 0.00 0.61 0.61 98 1012.1
20260904024946 56 182 4.0 5.0 0.05 0.61 0.61 98 1012.1
20260904024441 56 159 3.0 5.0 0.17 0.61 0.61 98 1012.5
20260904023937 56 201 5.0 6.0 0.24 0.60 0.60 98 1012.1
20260904023432 56 124 2.0 2.0 0.24 0.59 0.59 98 1012.1
20260904022931 56 164 2.0 3.0 0.19 0.56 0.56 97 1012.1
20260904022428 56 172 2.0 2.0 0.12 0.55 0.55 97 1011.8
20260904021924 56 187 3.0 3.0 0.05 0.53 0.53 97 1012.1
20260904021420 56 197 0.0 1.0 0.05 0.53 0.53 97 1011.8
20260904020915 56 173 2.0 2.0 0.00 0.52 0.52 97 1012.1
20260904020411 56 187 3.0 3.0 0.00 0.52 0.52 97 1012.1
20260904015909 56 179 2.0 3.0 0.00 0.52 0.52 97 1011.8
20260904015405 56 188 2.0 2.0 0.00 0.52 0.52 96 1011.8
20260904014903 56 172 3.0 3.0 0.00 0.52 0.52 96 1012.1
20260904014359 56 175 1.0 2.0 0.00 0.52 0.52 96 1011.8
20260904013854 56 160 3.0 3.0 0.00 0.52 0.52 96 1011.8
20260904013350 56 195 2.0 3.0 0.00 0.52 0.52 95 1011.8
20260904012845 56 195 3.0 3.0 0.00 0.52 0.52 95 1012.1
20260904012340 56 177 4.0 5.0 0.00 0.52 0.52 95 1012.1
20260904011839 56 166 3.0 3.0 0.00 0.52 0.52 96 1011.8
20260904011335 56 193 1.0 1.0 0.07 0.52 0.52 96 1012.1
20260904010830 56 162 2.0 2.0 0.07 0.52 0.52 96 1012.1
20260904010326 56 173 4.0 5.0 0.07 0.52 0.52 96 1012.1
20260904005821 56 182 3.0 3.0 0.00 0.51 0.51 96 1011.8
20260904005317 56 156 2.0 2.0 0.00 0.51 0.51 96 1011.8
20260904004817 56 179 3.0 5.0 0.00 0.51 0.51 97 1011.8
20260904004313 57 173 2.0 3.0 0.00 0.51 0.51 97 1011.8
20260904003809 58 107 5.0 6.0 0.00 0.51 0.51 98 1011.8
20260904003305 57 198 2.0 2.0 0.00 0.51 0.51 98 1012.1
20260904002800 58 174 3.0 3.0 0.00 0.51 0.51 98 1012.1
20260904002256 59 214 0.0 0.0 0.00 0.51 0.51 98 1012.1
20260904001755 58 215 0.0 0.0 0.07 0.51 0.51 98 1012.1
20260904001249 57 211 0.0 0.0 0.12 0.51 0.51 98 1012.1
20260904000744 57 200 1.0 1.0 0.12 0.50 0.50 97 1012.1
20260904000240 57 159 2.0 3.0 0.12 0.49 0.49 97 1012.1
20260903235738 57 159 3.0 3.0 0.17 0.48 0.48 96 1012.1
20260903235235 57 194 0.0 1.0 0.12 0.47 0.47 96 1012.1
20260903234734 57 191 1.0 2.0 0.05 0.46 0.46 96 1012.1
20260903234231 57 176 1.0 1.0 0.00 0.45 0.45 96 1012.1
20260903233727 56 152 3.0 3.0 0.00 0.45 0.45 96 1012.1
20260903233222 56 136 2.0 2.0 0.00 0.45 0.45 96 1012.5
20260903232721 57 147 4.0 5.0 0.00 0.45 0.45 96 1012.1
20260903232217 57 190 1.0 2.0 0.00 0.45 0.45 97 1012.1
20260903231716 57 204 0.0 0.0 0.00 0.45 0.45 97 1012.1
20260903231212 57 186 1.0 2.0 0.00 0.45 0.45 97 1012.1
20260903230707 56 210 0.0 0.0 0.00 0.45 0.45 98 1012.5
20260903230202 56 196 2.0 2.0 0.12 0.45 0.45 97 1012.1
20260903225658 55 185 1.0 1.0 0.19 0.45 0.45 97 1012.5
20260903225154 56 221 2.0 2.0 0.12 0.43 0.43 97 1012.5
20260903224649 57 187 2.0 2.0 0.12 0.42 0.42 97 1012.5
20260903224146 56 215 0.0 0.0 0.12 0.41 0.41 97 1012.5
20260903223641 56 226 0.0 2.0 0.05 0.40 0.40 97 1012.5
20260903223139 56 203 1.0 2.0 0.00 0.39 0.39 97 1012.5
20260903222634 56 202 0.0 0.0 0.00 0.39 0.39 97 1012.5
20260903222134 55 207 2.0 2.0 0.00 0.39 0.39 96 1012.5
20260903221629 55 191 1.0 2.0 0.00 0.39 0.39 96 1012.5
20260903221127 55 212 1.0 1.0 0.00 0.39 0.39 96 1012.5
20260903220626 55 194 1.0 1.0 0.00 0.39 0.39 96 1012.5
20260903220126 54 211 0.0 0.0 0.14 0.39 0.39 96 1012.5
20260903215625 54 186 0.0 0.0 0.19 0.39 0.39 95 1012.5
20260903215120 53 209 0.0 0.0 0.19 0.38 0.38 95 1012.5
20260903214619 53 194 1.0 1.0 0.12 0.36 0.36 95 1012.8
20260903214115 53 210 2.0 2.0 0.24 0.35 0.35 94 1012.8
20260903213615 54 221 3.0 5.0 0.24 0.34 0.34 93 1012.8
20260903213111 55 223 3.0 3.0 0.31 0.32 0.32 92 1013.2
20260903212606 55 198 1.0 2.0 0.31 0.30 0.30 91 1012.8
20260903212101 56 200 1.0 1.0 0.07 0.26 0.26 90 1012.5
20260903211556 57 179 1.0 2.0 0.00 0.25 0.25 88 1012.8
20260903211053 57 209 1.0 1.0 0.00 0.25 0.25 87 1012.8
20260903210548 57 213 2.0 2.0 0.00 0.25 0.25 85 1012.5
20260903210044 58 240 0.0 1.0 0.00 0.25 0.25 85 1012.5
20260903205543 58 209 0.0 0.0 0.00 0.25 0.25 84 1012.5
20260903205037 58 202 1.0 1.0 0.00 0.25 0.25 83 1012.5
20260903204533 58 211 1.0 1.0 0.00 0.25 0.25 82 1012.8
20260903204029 58 220 1.0 2.0 0.00 0.25 0.25 82 1012.5
20260903203524 58 207 0.0 1.0 0.00 0.25 0.25 81 1012.8
20260903203024 59 250 4.0 8.0 0.00 0.25 0.25 82 1012.5
20260903202520 59 223 3.0 5.0 0.00 0.25 0.25 85 1012.8
20260903202015 60 221 2.0 3.0 0.00 0.25 0.25 85 1012.8
20260903201510 60 194 2.0 2.0 0.00 0.25 0.25 85 1012.8
20260903201009 59 190 6.0 9.0 0.00 0.25 0.25 84 1012.5
20260903200504 59 196 2.0 2.0 0.07 0.25 0.25 85 1012.5
20260903195959 58 161 8.0 10.0 0.07 0.25 0.25 87 1012.5
20260903195455 58 218 8.0 11.0 0.00 0.24 0.24 88 1012.5
20260903194950 58 137 3.0 5.0 0.00 0.24 0.24 90 1012.5
20260903194445 58 206 5.0 7.0 0.00 0.24 0.24 89 1012.5
20260903193941 58 185 8.0 9.0 0.00 0.24 0.24 88 1012.8
20260903193437 59 181 7.0 9.0 0.00 0.24 0.24 87 1012.5
20260903192932 59 160 4.0 5.0 0.00 0.24 0.24 87 1012.5
20260903192429 59 190 9.0 14.0 0.00 0.24 0.24 87 1012.8
20260903191924 59 191 5.0 6.0 0.00 0.24 0.24 86 1012.8
20260903191420 59 187 5.0 7.0 0.00 0.24 0.24 85 1012.8
20260903190919 59 182 13.0 17.0 0.00 0.24 0.24 85 1012.5
20260903190414 59 191 6.0 7.0 0.00 0.24 0.24 87 1012.5
20260903185913 59 182 6.0 7.0 0.00 0.24 0.24 88 1012.5
20260903185408 59 162 4.0 5.0 0.00 0.24 0.24 89 1012.8
20260903184904 59 136 5.0 7.0 0.00 0.24 0.24 92 1012.5
20260903184401 58 187 2.0 2.0 0.00 0.24 0.24 94 1012.5
20260903183854 57 104 5.0 7.0 0.00 0.24 0.24 95 1012.8
20260903183350 58 143 5.0 6.0 0.00 0.24 0.24 95 1012.8
20260903182849 58 137 4.0 5.0 0.00 0.24 0.24 96 1012.5
20260903182348 57 172 2.0 5.0 0.00 0.24 0.24 96 1012.8
20260903181843 57 198 3.0 5.0 0.00 0.24 0.24 96 1012.8
20260903181337 57 123 6.0 7.0 0.00 0.24 0.24 96 1012.5
20260903180832 57 140 2.0 3.0 0.00 0.24 0.24 96 1012.5
20260903180331 57 115 4.0 6.0 0.00 0.24 0.24 96 1012.8
20260903175826 57 165 6.0 8.0 0.00 0.24 0.24 96 1012.8
20260903175325 57 129 4.0 6.0 0.00 0.24 0.24 96 1012.5
20260903174819 57 136 7.0 8.0 0.00 0.24 0.24 96 1012.5
20260903174315 57 132 5.0 6.0 0.00 0.24 0.24 96 1012.5
20260903173814 56 121 5.0 8.0 0.00 0.24 0.24 97 1012.8
20260903173310 56 159 9.0 11.0 0.00 0.24 0.24 96 1012.5
20260903172806 56 160 4.0 6.0 0.00 0.24 0.24 96 1012.8
20260903172300 56 186 5.0 7.0 0.05 0.24 0.24 96 1012.5
20260903171755 56 163 4.0 5.0 0.24 0.24 0.24 95 1012.5
20260903171251 56 173 6.0 7.0 0.24 0.23 0.23 95 1012.5
20260903170749 57 181 2.0 2.0 0.05 0.20 0.20 96 1013.2
20260903170245 57 195 2.0 3.0 0.12 0.19 0.19 95 1012.8
20260903165743 57 174 3.0 6.0 0.19 0.19 0.19 93 1012.8
20260903165238 57 192 1.0 2.0 0.07 0.17 0.17 92 1012.8
20260903164734 58 176 6.0 8.0 0.05 0.16 0.16 90 1012.8
20260903164230 58 177 3.0 5.0 0.05 0.16 0.16 88 1012.8
20260903163729 58 169 4.0 6.0 0.00 0.15 0.15 87 1012.8
20260903163226 58 164 8.0 11.0 0.00 0.15 0.15 88 1012.8
20260903162721 58 186 2.0 2.0 0.00 0.15 0.15 90 1012.8
20260903162217 58 164 5.0 7.0 0.00 0.15 0.15 92 1012.8
20260903161712 57 113 3.0 5.0 0.00 0.15 0.15 95 1012.5
20260903161202 56 118 4.0 6.0 0.00 0.15 0.15 96 1012.5
20260903160657 56 162 8.0 9.0 0.00 0.15 0.15 96 1012.8
20260903160151 56 205 7.0 9.0 0.00 0.15 0.15 98 1012.8
20260903155650 55 183 3.0 5.0 0.00 0.15 0.15 98 1012.8
20260903155145 55 178 3.0 5.0 0.00 0.15 0.15 98 1012.5
20260903154640 55 186 3.0 3.0 0.00 0.15 0.15 98 1012.8
20260903154136 55 199 0.0 0.0 0.00 0.15 0.15 98 1012.5
20260903153632 55 176 3.0 3.0 0.00 0.15 0.15 98 1012.5
20260903153128 55 125 4.0 5.0 0.00 0.15 0.15 98 1012.8
20260903152624 55 142 2.0 3.0 0.00 0.15 0.15 98 1012.8
20260903152120 55 192 2.0 2.0 0.00 0.15 0.15 99 1012.5
20260903151619 55 132 4.0 7.0 0.00 0.15 0.15 99 1012.8
20260903151114 55 136 2.0 3.0 0.00 0.15 0.15 99 1012.8
20260903150614 55 134 2.0 3.0 0.00 0.15 0.15 99 1012.5
20260903150109 55 160 3.0 5.0 0.00 0.15 0.15 99 1012.5
20260903145609 55 107 5.0 6.0 0.00 0.15 0.15 99 1012.8
20260903145104 54 184 1.0 1.0 0.00 0.15 0.15 99 1012.5
20260903144603 54 179 4.0 5.0 0.00 0.15 0.15 99 1012.5
20260903144059 54 171 2.0 2.0 0.00 0.15 0.15 99 1012.5
20260903143555 54 184 3.0 5.0 0.00 0.15 0.15 99 1012.5
20260903143051 54 178 3.0 3.0 0.00 0.15 0.15 99 1012.5
20260903142546 54 146 5.0 7.0 0.00 0.15 0.15 98 1012.5
20260903142043 54 159 4.0 5.0 0.00 0.15 0.15 98 1012.5
20260903141538 54 130 5.0 7.0 0.00 0.15 0.15 98 1012.8
20260903141033 54 140 2.0 5.0 0.00 0.15 0.15 98 1012.5
20260903140529 54 121 7.0 9.0 0.07 0.15 0.15 98 1012.1
20260903140024 54 176 1.0 2.0 0.12 0.15 0.15 98 1012.5
20260903135520 54 172 5.0 6.0 0.12 0.14 0.14 98 1012.5
20260903135019 55 166 0.0 0.0 0.14 0.13 0.13 98 1012.5
20260903134519 55 172 0.0 0.0 0.12 0.12 0.12 98 1012.8
20260903134015 55 170 0.0 0.0 0.12 0.11 0.11 98 1012.8
20260903133512 55 183 0.0 0.0 0.07 0.10 0.10 98 1012.5
20260903133008 55 194 5.0 7.0 0.12 0.09 0.09 97 1012.5
20260903132502 55 169 5.0 7.0 0.35 0.09 0.09 97 1012.8
20260903131957 55 179 4.0 5.0 0.28 0.07 0.07 96 1012.5
20260903131452 55 207 4.0 5.0 0.12 0.03 0.03 96 1012.1
20260903130951 55 93 5.0 8.0 0.07 0.02 0.02 95 1012.5
20260903130446 56 170 6.0 10.0 0.00 0.01 0.01 95 1012.5
20260903125944 56 178 4.0 5.0 0.07 0.01 0.01 94 1012.5
20260903125439 56 147 7.0 9.0 0.07 0.01 0.01 93 1012.1
20260903124938 56 165 9.0 13.0 0.00 0.00 0.00 91 1012.5
20260903124433 56 147 9.0 10.0 0.00 0.00 0.00 92 1012.5
20260903123932 56 168 5.0 7.0 0.00 0.00 0.00 92 1012.1
20260903123427 56 160 5.0 8.0 0.00 0.00 0.00 93 1012.1
20260903122926 55 171 4.0 5.0 0.00 0.00 0.00 93 1012.1
20260903122421 55 154 5.0 7.0 0.00 0.00 0.00 94 1012.1
20260903121919 55 152 5.0 6.0 0.00 0.00 0.00 94 1012.5
20260903121415 55 120 6.0 7.0 0.00 0.00 0.00 94 1012.5
20260903120911 55 169 5.0 6.0 0.00 0.00 0.00 94 1012.5
20260903120410 55 155 7.0 9.0 0.00 0.00 0.00 94 1012.5
20260903115908 55 89 5.0 6.0 0.00 0.00 0.00 94 1012.5
20260903115403 55 168 4.0 5.0 0.00 0.00 0.00 94 1012.5
20260903114857 55 162 4.0 6.0 0.00 0.00 0.00 94 1012.5
20260903114354 55 145 4.0 5.0 0.00 0.00 0.00 94 1012.5
20260903113849 55 188 6.0 9.0 0.00 0.00 0.00 94 1012.5
20260903113344 56 196 5.0 6.0 0.00 0.00 0.00 93 1012.5
20260903112840 56 174 3.0 3.0 0.00 0.00 0.00 93 1012.1
20260903112336 56 185 4.0 5.0 0.00 0.00 0.00 93 1012.5
20260903111834 56 174 3.0 3.0 0.00 0.00 0.00 92 1012.1
20260903111328 56 180 5.0 7.0 0.00 0.00 0.00 92 1012.5
20260903110825 56 149 5.0 6.0 0.00 0.00 0.00 92 1012.5
20260903110321 56 145 3.0 3.0 0.00 0.00 0.00 92 1012.5
20260903105820 56 157 3.0 3.0 0.00 0.00 0.00 92 1012.5
20260903105310 56 179 7.0 8.0 0.00 0.00 0.00 92 1012.5
20260903104810 56 190 3.0 3.0 0.00 0.00 0.00 92 1012.5
20260903104310 56 163 5.0 7.0 0.00 0.00 0.00 92 1012.5
20260903103806 56 184 5.0 6.0 0.00 0.00 0.00 92 1012.5
20260903103256 56 162 5.0 7.0 0.00 0.00 0.00 92 1012.8
20260903102751 56 95 3.0 6.0 0.00 0.00 0.00 92 1012.5
20260903102246 56 152 3.0 3.0 0.00 0.00 0.00 92 1012.5
20260903101744 56 164 4.0 5.0 0.00 0.00 0.00 92 1012.8
20260903101241 56 139 3.0 5.0 0.00 0.00 0.00 92 1012.5
20260903100736 56 192 5.0 6.0 0.00 0.00 0.00 92 1012.8
20260903100236 56 194 4.0 5.0 0.00 0.00 0.00 92 1012.5
20260903095733 56 194 4.0 6.0 0.00 0.00 0.00 92 1012.5
20260903095228 56 187 3.0 5.0 0.00 0.00 0.00 93 1012.5
20260903094723 56 169 4.0 5.0 0.00 0.00 0.00 93 1012.5
20260903094218 56 213 10.0 13.0 0.00 0.00 0.00 93 1012.5
20260903093714 56 187 4.0 5.0 0.00 0.00 0.00 94 1012.5
20260903093209 56 127 7.0 9.0 0.00 0.00 0.00 94 1012.5
20260903092708 56 170 3.0 5.0 0.00 0.00 0.00 94 1012.5
20260903092203 56 188 3.0 5.0 0.00 0.00 0.00 94 1012.5
20260903091701 56 150 4.0 7.0 0.00 0.00 0.00 94 1012.8
20260903091156 56 172 3.0 3.0 0.00 0.00 0.00 93 1012.8
20260903090652 57 162 2.0 2.0 0.00 0.00 0.00 93 1012.8
20260903090150 57 174 3.0 6.0 0.00 0.00 0.00 93 1012.8
20260903085649 57 169 3.0 3.0 0.00 0.00 0.00 93 1012.5
20260903085145 57 193 5.0 6.0 0.00 0.00 0.00 93 1012.8
20260903084642 56 175 1.0 2.0 0.00 0.00 0.00 93 1012.8
20260903084137 56 195 2.0 3.0 0.00 0.00 0.00 93 1012.8
20260903083633 56 181 4.0 5.0 0.00 0.00 0.00 94 1012.8
20260903083127 56 190 1.0 1.0 0.00 0.00 0.00 93 1012.8
20260903082622 56 172 2.0 3.0 0.00 0.00 0.00 93 1012.8
20260903082118 56 199 3.0 5.0 0.00 0.00 0.00 93 1013.2
20260903081613 57 194 3.0 5.0 0.00 0.00 0.00 93 1012.8
20260903081108 57 151 6.0 8.0 0.00 0.00 0.00 93 1012.8
20260903080604 57 135 3.0 3.0 0.00 0.00 0.00 93 1012.8
20260903075601 56 196 3.0 5.0 0.00 0.00 0.00 94 1012.8
20260903075057 56 147 3.0 3.0 0.00 0.00 0.00 95 1012.8
20260903074556 55 170 5.0 6.0 0.00 0.00 0.00 96 1012.8
20260903074056 55 155 3.0 5.0 0.00 0.00 0.00 96 1012.8
20260903073551 55 162 2.0 2.0 0.00 0.00 0.00 96 1012.8
20260903073047 55 170 1.0 2.0 0.00 0.00 0.00 97 1012.8
20260903072542 56 124 4.0 5.0 0.00 0.00 0.00 97 1012.5
20260903072038 56 154 4.0 5.0 0.00 0.00 0.00 97 1012.8
20260903071535 56 177 3.0 3.0 0.00 0.00 0.00 97 1012.8
20260903071030 56 156 1.0 1.0 0.00 0.00 0.00 97 1012.5
20260903070530 56 172 2.0 2.0 0.00 0.00 0.00 97 1012.8
20260903070026 56 197 0.0 0.0 0.00 0.61 0.61 97 1012.5
20260903065525 56 186 2.0 2.0 0.00 0.61 0.61 97 1012.8
20260903065020 56 204 4.0 6.0 0.00 0.61 0.61 97 1012.5
20260903064519 56 152 4.0 6.0 0.00 0.61 0.61 97 1012.8
20260903064015 56 188 1.0 1.0 0.00 0.61 0.61 97 1012.8
20260903063510 56 169 2.0 2.0 0.00 0.61 0.61 97 1012.8
20260903063006 56 165 2.0 3.0 0.00 0.61 0.61 97 1012.8
20260903062501 56 181 1.0 2.0 0.00 0.61 0.61 97 1012.5
20260903061956 57 146 5.0 7.0 0.05 0.61 0.61 96 1012.8
20260903061456 57 174 3.0 5.0 0.05 0.61 0.61 96 1012.8
20260903060951 57 189 2.0 3.0 0.00 0.60 0.60 96 1012.8
20260903060446 57 128 5.0 6.0 0.00 0.60 0.60 96 1012.8
20260903055944 57 193 1.0 2.0 0.00 0.60 0.60 95 1012.8
20260903055442 57 140 3.0 5.0 0.00 0.60 0.60 95 1013.2
20260903054936 57 193 1.0 1.0 0.00 0.60 0.60 95 1012.8
20260903054431 57 176 7.0 8.0 0.00 0.60 0.60 95 1013.2
20260903053928 57 200 0.0 0.0 0.00 0.60 0.60 96 1012.8
20260903053427 57 186 6.0 7.0 0.00 0.60 0.60 96 1013.2
20260903052924 57 179 4.0 5.0 0.00 0.60 0.60 96 1012.8
20260903052420 57 170 5.0 7.0 0.00 0.60 0.60 96 1013.2
20260903051915 57 202 6.0 7.0 0.00 0.60 0.60 96 1012.8
20260903051410 57 185 2.0 2.0 0.00 0.60 0.60 97 1012.8
20260903050906 57 167 3.0 6.0 0.00 0.60 0.60 97 1012.8
20260903050404 57 194 1.0 2.0 0.00 0.60 0.60 97 1012.8
20260903045859 57 207 3.0 5.0 0.00 0.60 0.60 97 1012.8
20260903045355 57 166 2.0 2.0 0.00 0.60 0.60 98 1012.8
20260903044851 57 154 2.0 3.0 0.00 0.60 0.60 98 1012.5
20260903044346 56 173 3.0 3.0 0.00 0.60 0.60 98 1012.5
20260903043843 56 202 1.0 2.0 0.00 0.60 0.60 98 1012.5
20260903043343 56 164 2.0 3.0 0.00 0.60 0.60 97 1012.1
20260903042841 56 172 2.0 2.0 0.00 0.60 0.60 97 1012.5
20260903042337 56 191 5.0 7.0 0.00 0.60 0.60 97 1012.5
20260903041833 57 159 4.0 6.0 0.00 0.60 0.60 97 1012.1
20260903041329 57 174 2.0 3.0 0.00 0.60 0.60 97 1012.5
20260903040824 57 177 4.0 5.0 0.00 0.60 0.60 96 1012.5
20260903040323 57 172 2.0 3.0 0.00 0.60 0.60 96 1012.5
20260903035820 57 176 5.0 7.0 0.00 0.60 0.60 96 1012.5
20260903035315 57 172 7.0 11.0 0.00 0.60 0.60 96 1012.5
20260903034810 57 189 3.0 3.0 0.00 0.60 0.60 96 1011.8
20260903034305 57 165 2.0 2.0 0.00 0.60 0.60 96 1011.8
20260903033800 57 113 5.0 6.0 0.00 0.60 0.60 96 1011.8
20260903033250 57 174 2.0 3.0 0.00 0.60 0.60 96 1012.1
20260903032749 57 168 4.0 5.0 0.00 0.60 0.60 96 1011.8
20260903032245 57 121 3.0 5.0 0.00 0.60 0.60 97 1011.8
20260903031741 57 142 4.0 6.0 0.00 0.60 0.60 97 1011.8